Location: Hoyos del Collado
(40.3594°N, 5.2003°W)
Time: 12:01:25
(UTC+00:00)

ISS - Pass Details

Date: 27 June 2024
Orbit: 410 x 424 km, 51.6° (Epoch: 13 July)

Event Time Altitude Azimuth Distance (km) Brightness Sun altitude
Exits shadow 01:47:10 19° 87° (E) 1,049 -1.5 -23.5°
Drops below altitude 10° 01:48:28 10° 72° (ENE) 1,486 -0.5 -23.4°
Sets 01:50:42 0° 61° (ENE) 2,355 0.8 -23.2°
